Torna al catalogo

OPS 2644 DEB

AttivoPO
NORAD 3840·DEBRIS·🇺🇸 United States

Lanciato Feb 5, 1969 da Vandenberg Space Force Base

Loading…

Prossimi Passaggi (prossime 24 ore)

TLE

AggiornatoSource: Space-Track

Epoca: Sep 13, 2026, 11:15 UTC

1 03840U 69010C   26256.46883803  .00000019  00000-0  73286-4 0  9992
2 03840  80.6016 260.0011 0033599   7.1708 145.9170 12.58672066644396

Traccia OPS 2644 DEB in tempo reale con AllMySat

Download on the App Store